(2020 GU1) |
Classification: Apollo [NEO] SPK-ID: 54016479 |
[ hide orbit diagram ]
For accurate long-term ephemerides, please instead use our Horizons system.This orbit viewer was implemented using two-body methods, and hence should not be used for determining accurate long-term trajectories (over several years or decades) or planetary encounter circumstances.
Orbital Elements at Epoch 2459000.5 (2020-May-31.0) TDB
Reference: JPL 7 (heliocentric ecliptic J2000)
Element | Value | Uncertainty (1-sigma) | Units |
e | .194837292279314 | 0.00021377 | |
a | 1.103235295259402 | 0.00017529 | au |
q | .8882839175840902 | 9.4707e-05 | au |
i | 6.584307095915918 | 0.0065462 | deg |
node | 195.1378207613515 | 0.00048487 | deg |
peri | 81.33901228208764 | 0.0040839 | deg |
M | 348.0575362559167 | 0.014599 | deg |
tp | 2459014.540807297455 (2020-Jun-14.04080730) | 0.013818 | TDB |
period | 423.2535878192009 1.16 | 0.10087 0.0002762 | d yr |
n | .8505539240786765 | 0.00020271 | deg/d |
Q | 1.318186672934713 | 0.00020944 | au |
|
| | Orbit Determination Parameters
Additional Information
|
[ show covariance matrix ]
Physical Parameter Table
Parameter |
Symbol |
Value |
Units |
Sigma |
Reference |
Notes |
absolute magnitude |
H |
27.032 |
|
.75169 |
7 |
autocmod 2.8 |
|
[ show close-approach data ]
|